Time,TemperatureF,DewpointF,PressureIn,WindDirection,WindDirectionDegrees,WindSpeedMPH,WindSpeedGustMPH,Humidity,HourlyPrecipIn,Conditions,Clouds,dailyrainin,SolarRadiationWatts/m^2,SoftwareType,DateUTC
2013-02-13 00:01:00,3.0,-1.0,-100.00,WSW,254,0.0,3.0,84,-99.99,,,0.00,0.000000,,2013-02-13 07:01:00,
2013-02-13 00:32:00,4.0,0.0,-100.00,South,179,0.0,3.0,84,-99.99,,,0.00,0.000000,,2013-02-13 07:32:00,
2013-02-13 00:42:00,4.0,0.0,-100.00,South,179,0.0,3.0,84,-99.99,,,0.00,0.000000,,2013-02-13 07:42:00,
2013-02-13 00:52:00,4.0,0.0,-100.00,South,179,0.0,3.0,84,-99.99,,,0.00,0.000000,,2013-02-13 07:52:00,
2013-02-13 01:01:00,4.0,0.0,-100.00,South,179,0.0,3.0,84,-99.99,,,0.00,0.000000,,2013-02-13 08:01:00,
2013-02-13 01:32:00,2.0,-2.0,-100.00,South,180,0.0,0.0,83,-99.99,,,0.00,0.000000,,2013-02-13 08:32:00,
2013-02-13 01:43:00,2.0,-2.0,-100.00,South,180,0.0,0.0,83,-99.99,,,0.00,0.000000,,2013-02-13 08:43:00,
2013-02-13 01:52:00,2.0,-2.0,-100.00,South,180,0.0,0.0,83,-99.99,,,0.00,0.000000,,2013-02-13 08:52:00,
2013-02-13 02:01:00,2.0,-2.0,-100.00,South,180,0.0,0.0,83,-99.99,,,0.00,0.000000,,2013-02-13 09:01:00,
2013-02-13 02:21:00,-1.0,-5.0,-100.00,WSW,241,0.0,0.0,82,-99.99,,,-99.99,0.000000,,2013-02-13 09:21:00,
2013-02-13 02:32:00,-1.0,-5.0,-100.00,WSW,241,0.0,0.0,82,-99.99,,,-99.99,0.000000,,2013-02-13 09:32:00,
2013-02-13 02:42:00,-1.0,-5.0,-100.00,WSW,241,0.0,0.0,82,-99.99,,,-99.99,0.000000,,2013-02-13 09:42:00,
2013-02-13 02:52:00,-1.0,-5.0,-100.00,WSW,241,0.0,0.0,82,-99.99,,,-99.99,0.000000,,2013-02-13 09:52:00,
2013-02-13 03:01:00,-1.0,-5.0,-100.00,WSW,241,0.0,0.0,82,-99.99,,,-99.99,0.000000,,2013-02-13 10:01:00,
2013-02-13 03:32:00,0.0,-4.0,-100.00,SSW,207,0.0,0.0,81,-99.99,,,0.00,0.000000,,2013-02-13 10:32:00,
2013-02-13 03:42:00,0.0,-4.0,-100.00,SSW,207,0.0,0.0,81,-99.99,,,0.00,0.000000,,2013-02-13 10:42:00,
2013-02-13 03:52:00,0.0,-4.0,-100.00,SSW,207,0.0,0.0,81,-99.99,,,0.00,0.000000,,2013-02-13 10:52:00,
2013-02-13 04:01:00,0.0,-4.0,-100.00,SSW,207,0.0,0.0,81,-99.99,,,0.00,0.000000,,2013-02-13 11:01:00,
2013-02-13 04:32:00,0.0,-4.0,-100.00,South,176,0.0,3.0,82,-99.99,,,0.00,0.000000,,2013-02-13 11:32:00,
2013-02-13 04:42:00,0.0,-4.0,-100.00,South,176,0.0,3.0,82,-99.99,,,0.00,0.000000,,2013-02-13 11:42:00,
2013-02-13 04:52:00,0.0,-4.0,-100.00,South,176,0.0,3.0,82,-99.99,,,0.00,0.000000,,2013-02-13 11:52:00,
2013-02-13 05:02:00,0.0,-4.0,-100.00,South,176,0.0,3.0,82,-99.99,,,0.00,0.000000,,2013-02-13 12:02:00,
2013-02-13 05:32:00,-2.0,-6.0,-100.00,South,186,0.0,0.0,81,-99.99,,,0.00,0.000000,,2013-02-13 12:32:00,
2013-02-13 05:42:00,-2.0,-6.0,-100.00,South,186,0.0,0.0,81,-99.99,,,0.00,0.000000,,2013-02-13 12:42:00,
2013-02-13 05:52:00,-2.0,-6.0,-100.00,South,186,0.0,0.0,81,-99.99,,,0.00,0.000000,,2013-02-13 12:52:00,
2013-02-13 06:02:00,-2.0,-6.0,-100.00,South,186,0.0,0.0,81,-99.99,,,0.00,0.000000,,2013-02-13 13:02:00,
2013-02-13 06:32:00,0.0,-4.0,-100.00,WNW,294,0.0,4.0,81,-99.99,,,0.00,0.000000,,2013-02-13 13:32:00,
2013-02-13 06:42:00,0.0,-4.0,-100.00,WNW,294,0.0,4.0,81,-99.99,,,0.00,0.000000,,2013-02-13 13:42:00,
2013-02-13 06:52:00,0.0,-4.0,-100.00,WNW,294,0.0,4.0,81,-99.99,,,0.00,0.000000,,2013-02-13 13:52:00,
2013-02-13 07:01:00,0.0,-4.0,-100.00,WNW,294,0.0,4.0,81,-99.99,,,0.00,0.000000,,2013-02-13 14:01:00,
2013-02-13 07:22:00,-3.0,-8.0,-100.00,West,264,0.0,0.0,80,-99.99,,,0.00,0.000000,,2013-02-13 14:22:00,
2013-02-13 07:32:00,-3.0,-8.0,-100.00,West,264,0.0,0.0,80,-99.99,,,0.00,0.000000,,2013-02-13 14:32:00,
2013-02-13 07:42:00,-3.0,-8.0,-100.00,West,264,0.0,0.0,80,-99.99,,,0.00,0.000000,,2013-02-13 14:42:00,
2013-02-13 07:52:00,-3.0,-8.0,-100.00,West,264,0.0,0.0,80,-99.99,,,0.00,0.000000,,2013-02-13 14:52:00,
2013-02-13 08:01:00,-3.0,-8.0,-100.00,West,264,0.0,0.0,80,-99.99,,,0.00,0.000000,,2013-02-13 15:01:00,
2013-02-13 08:32:00,1.0,-3.0,-100.00,NE,54,0.0,3.0,81,-99.99,,,0.00,44.000000,,2013-02-13 15:32:00,
2013-02-13 08:42:00,1.0,-3.0,-100.00,NE,54,0.0,3.0,81,-99.99,,,0.00,44.000000,,2013-02-13 15:42:00,
2013-02-13 08:52:00,1.0,-3.0,-100.00,NE,54,0.0,3.0,81,-99.99,,,0.00,44.000000,,2013-02-13 15:52:00,
2013-02-13 09:01:00,1.0,-3.0,-100.00,NE,54,0.0,3.0,81,-99.99,,,0.00,44.000000,,2013-02-13 16:01:00,
2013-02-13 09:32:00,16.0,12.0,-100.00,WNW,283,0.0,2.0,84,-99.99,,,0.00,258.000000,,2013-02-13 16:32:00,
2013-02-13 09:42:00,16.0,12.0,-100.00,WNW,283,0.0,2.0,84,-99.99,,,0.00,258.000000,,2013-02-13 16:42:00,
2013-02-13 09:52:00,16.0,12.0,-100.00,WNW,283,0.0,2.0,84,-99.99,,,0.00,258.000000,,2013-02-13 16:52:00,
2013-02-13 10:01:00,16.0,12.0,-100.00,WNW,283,0.0,2.0,84,-99.99,,,0.00,258.000000,,2013-02-13 17:01:00,
2013-02-13 10:32:00,25.0,17.0,-100.00,NNW,346,1.0,0.0,72,-99.99,,,0.00,395.000000,,2013-02-13 17:32:00,
2013-02-13 10:42:00,25.0,17.0,-100.00,NNW,346,1.0,0.0,72,-99.99,,,0.00,395.000000,,2013-02-13 17:42:00,
2013-02-13 10:52:00,25.0,17.0,-100.00,NNW,346,1.0,0.0,72,-99.99,,,0.00,395.000000,,2013-02-13 17:52:00,
2013-02-13 11:01:00,25.0,17.0,-100.00,NNW,346,1.0,0.0,72,-99.99,,,0.00,395.000000,,2013-02-13 18:01:00,
2013-02-13 11:32:00,37.0,11.0,-100.00,West,270,3.0,9.0,33,0.00,,,0.00,582.000000,,2013-02-13 18:32:00,
2013-02-13 11:42:00,37.0,11.0,-100.00,West,270,3.0,9.0,33,0.00,,,0.00,582.000000,,2013-02-13 18:42:00,
2013-02-13 11:52:00,37.0,11.0,-100.00,West,270,3.0,9.0,33,0.00,,,0.00,582.000000,,2013-02-13 18:52:00,
2013-02-13 12:01:00,37.0,11.0,-100.00,West,270,3.0,9.0,33,0.00,,,0.00,582.000000,,2013-02-13 19:01:00,
2013-02-13 12:32:00,37.0,15.0,-100.00,NNE,19,10.0,10.0,40,0.00,,,0.00,724.000000,,2013-02-13 19:32:00,
2013-02-13 12:42:00,37.0,15.0,-100.00,NNE,19,10.0,10.0,40,0.00,,,0.00,724.000000,,2013-02-13 19:42:00,
2013-02-13 12:52:00,37.0,15.0,-100.00,NNE,19,10.0,10.0,40,0.00,,,0.00,724.000000,,2013-02-13 19:52:00,
2013-02-13 13:01:00,37.0,15.0,-100.00,NNE,19,10.0,10.0,40,0.00,,,0.00,724.000000,,2013-02-13 20:01:00,
2013-02-13 13:22:00,38.0,14.0,-100.00,NE,37,6.0,16.0,37,0.00,,,-99.99,808.000000,,2013-02-13 20:22:00,
2013-02-13 13:32:00,38.0,14.0,-100.00,NE,37,6.0,16.0,37,0.00,,,-99.99,808.000000,,2013-02-13 20:32:00,
2013-02-13 13:42:00,38.0,14.0,-100.00,NE,37,6.0,16.0,37,0.00,,,-99.99,808.000000,,2013-02-13 20:42:00,
2013-02-13 13:52:00,38.0,14.0,-100.00,NE,37,6.0,16.0,37,0.00,,,-99.99,808.000000,,2013-02-13 20:52:00,
2013-02-13 14:01:00,38.0,14.0,-100.00,NE,37,6.0,16.0,37,0.00,,,-99.99,808.000000,,2013-02-13 21:01:00,
2013-02-13 14:32:00,38.0,16.0,-100.00,NNE,25,7.0,13.0,41,0.00,,,0.00,787.000000,,2013-02-13 21:32:00,
2013-02-13 14:42:00,38.0,16.0,-100.00,NNE,25,7.0,13.0,41,0.00,,,0.00,787.000000,,2013-02-13 21:42:00,
2013-02-13 14:52:00,38.0,16.0,-100.00,NNE,25,7.0,13.0,41,0.00,,,0.00,787.000000,,2013-02-13 21:52:00,
2013-02-13 15:01:00,38.0,16.0,-100.00,NNE,25,7.0,13.0,41,0.00,,,0.00,787.000000,,2013-02-13 22:01:00,
2013-02-13 15:32:00,41.0,17.0,-100.00,NNE,15,7.0,12.0,38,0.00,,,0.00,690.000000,,2013-02-13 22:32:00,
2013-02-13 15:42:00,41.0,17.0,-100.00,NNE,15,7.0,12.0,38,0.00,,,0.00,690.000000,,2013-02-13 22:42:00,
2013-02-13 15:52:00,41.0,17.0,-100.00,NNE,15,7.0,12.0,38,0.00,,,0.00,690.000000,,2013-02-13 22:52:00,
2013-02-13 16:01:00,41.0,17.0,-100.00,NNE,15,7.0,12.0,38,0.00,,,0.00,690.000000,,2013-02-13 23:01:00,
2013-02-13 16:32:00,41.0,16.0,-100.00,NE,39,6.0,11.0,36,0.00,,,0.00,532.000000,,2013-02-13 23:32:00,
2013-02-13 16:42:00,41.0,16.0,-100.00,NE,39,6.0,11.0,36,0.00,,,0.00,532.000000,,2013-02-13 23:42:00,
2013-02-13 16:52:00,41.0,16.0,-100.00,NE,39,6.0,11.0,36,0.00,,,0.00,532.000000,,2013-02-13 23:52:00,
2013-02-13 17:01:00,41.0,16.0,-100.00,NE,39,6.0,11.0,36,0.00,,,0.00,532.000000,,2013-02-14 00:01:00,
2013-02-13 17:32:00,34.0,14.0,-100.00,NNE,17,7.0,15.0,44,0.00,,,0.00,218.000000,,2013-02-14 00:32:00,
2013-02-13 17:42:00,34.0,14.0,-100.00,NNE,17,7.0,15.0,44,0.00,,,0.00,218.000000,,2013-02-14 00:42:00,
2013-02-13 17:52:00,34.0,14.0,-100.00,NNE,17,7.0,15.0,44,0.00,,,0.00,218.000000,,2013-02-14 00:52:00,
2013-02-13 18:01:00,34.0,14.0,-100.00,NNE,17,7.0,15.0,44,0.00,,,0.00,218.000000,,2013-02-14 01:01:00,
2013-02-13 18:32:00,33.0,14.0,-100.00,ENE,59,5.0,12.0,45,0.00,,,0.00,16.000000,,2013-02-14 01:32:00,
2013-02-13 18:42:00,33.0,14.0,-100.00,ENE,59,5.0,12.0,45,0.00,,,0.00,16.000000,,2013-02-14 01:42:00,
2013-02-13 18:51:00,33.0,14.0,-100.00,ENE,59,5.0,12.0,45,0.00,,,0.00,16.000000,,2013-02-14 01:51:00,
2013-02-13 19:01:00,33.0,14.0,-100.00,ENE,59,5.0,12.0,45,0.00,,,0.00,16.000000,,2013-02-14 02:01:00,
2013-02-13 19:21:00,25.0,13.0,-100.00,SE,136,2.0,9.0,59,0.00,,,0.00,1.000000,,2013-02-14 02:21:00,
2013-02-13 19:32:00,25.0,13.0,-100.00,SE,136,2.0,9.0,59,0.00,,,0.00,1.000000,,2013-02-14 02:32:00,
2013-02-13 19:42:00,25.0,13.0,-100.00,SE,136,2.0,9.0,59,0.00,,,0.00,1.000000,,2013-02-14 02:42:00,
2013-02-13 19:51:00,25.0,13.0,-100.00,SE,136,2.0,9.0,59,0.00,,,0.00,1.000000,,2013-02-14 02:51:00,
2013-02-13 20:02:00,25.0,13.0,-100.00,SE,136,2.0,9.0,59,0.00,,,0.00,1.000000,,2013-02-14 03:02:00,
2013-02-13 20:22:00,23.0,14.0,-100.00,SSW,209,0.0,8.0,67,0.00,,,0.00,0.000000,,2013-02-14 03:22:00,
2013-02-13 20:32:00,23.0,14.0,-100.00,SSW,209,0.0,8.0,67,0.00,,,0.00,0.000000,,2013-02-14 03:32:00,
2013-02-13 20:42:00,23.0,14.0,-100.00,SSW,209,0.0,8.0,67,0.00,,,0.00,0.000000,,2013-02-14 03:42:00,
2013-02-13 20:52:00,23.0,14.0,-100.00,SSW,209,0.0,8.0,67,0.00,,,0.00,0.000000,,2013-02-14 03:52:00,
2013-02-13 21:01:00,23.0,14.0,-100.00,SSW,209,0.0,8.0,67,0.00,,,0.00,0.000000,,2013-02-14 04:01:00,
2013-02-13 21:32:00,18.0,13.0,-100.00,WSW,250,0.0,4.0,79,-99.99,,,0.00,0.000000,,2013-02-14 04:32:00,
2013-02-13 21:42:00,18.0,13.0,-100.00,WSW,250,0.0,4.0,79,-99.99,,,0.00,0.000000,,2013-02-14 04:42:00,
2013-02-13 21:51:00,18.0,13.0,-100.00,WSW,250,0.0,4.0,79,-99.99,,,0.00,0.000000,,2013-02-14 04:51:00,
2013-02-13 22:01:00,18.0,13.0,-100.00,WSW,250,0.0,4.0,79,-99.99,,,0.00,0.000000,,2013-02-14 05:01:00,
2013-02-13 22:22:00,13.0,9.0,-100.00,NW,316,0.0,2.0,82,-99.99,,,0.00,0.000000,,2013-02-14 05:22:00,
2013-02-13 22:32:00,13.0,9.0,-100.00,NW,316,0.0,2.0,82,-99.99,,,0.00,0.000000,,2013-02-14 05:32:00,
2013-02-13 22:42:00,13.0,9.0,-100.00,NW,316,0.0,2.0,82,-99.99,,,0.00,0.000000,,2013-02-14 05:42:00,
2013-02-13 22:52:00,13.0,9.0,-100.00,NW,316,0.0,2.0,82,-99.99,,,0.00,0.000000,,2013-02-14 05:52:00,
2013-02-13 23:01:00,13.0,9.0,-100.00,NW,316,0.0,2.0,82,-99.99,,,0.00,0.000000,,2013-02-14 06:01:00,
2013-02-13 23:22:00,11.0,8.0,-100.00,SE,128,0.0,0.0,89,-99.99,,,0.00,0.000000,,2013-02-14 06:22:00,
2013-02-13 23:32:00,11.0,8.0,-100.00,SE,128,0.0,0.0,89,-99.99,,,0.00,0.000000,,2013-02-14 06:32:00,
2013-02-13 23:42:00,11.0,8.0,-100.00,SE,128,0.0,0.0,89,-99.99,,,0.00,0.000000,,2013-02-14 06:42:00,
2013-02-13 23:52:00,11.0,8.0,-100.00,SE,128,0.0,0.0,89,-99.99,,,0.00,0.000000,,2013-02-14 06:52:00,